[[{"header":{"parameterUnit":"m.s-1","parameterCategory":2,"la1":30.2992,"la2":30.254,"lo1":-89.0895,"lo2":-89.0443,"dy":0.0025,"dx":0.0025,"nx":19,"ny":19,"refTime":"2026-03-18T21:00:00:Z","depth":"0","parameterNumber":2,"parameterNumberName":"U-component_of_CURRENTS"},"data":[0,0,0,-0.1028,-0.1028,-0.1034,-0.1035,-0.0964,-0.0963,0,0,0,0,0,0,0,0,0,0,0,-0.102,-0.1019,-0.1028,-0.1028,-0.1034,-0.1035,-0.0964,-0.0963,0,0,0,0,0,0,0,0,0,0,0,-0.102,-0.1019,-0.1019,-0.1028,-0.1034,-0.1035,-0.0964,-0.098,0,0,0,0,0,0,0,0,0,0,-0.0984,-0.1001,-0.1019,-0.1019,-0.1028,-0.1034,-0.1035,-0.0982,-0.0979,-0.0936,0,-0.093,0,-0.0942,-0.0956,-0.0955,0,0,0,-0.1033,-0.1003,-0.0989,-0.1019,-0.1028,-0.1034,-0.1033,-0.0981,-0.0978,-0.0932,-0.0929,-0.0928,-0.0941,-0.0955,-0.0954,-0.0896,-0.0896,0,0,-0.1033,-0.1036,-0.0992,-0.0987,-0.1018,-0.1033,-0.1033,-0.098,-0.0978,-0.0929,-0.0926,-0.094,-0.0954,-0.0953,-0.0896,-0.0896,0,0,0,-0.1028,-0.1035,-0.1025,-0.0989,-0.0995,-0.1033,-0.1033,-0.0981,-0.0973,-0.0926,-0.0939,-0.0954,-0.0952,-0.0896,-0.0896,-0.0921,0,0,0,-0.1028,-0.1032,-0.1024,-0.1028,-0.0996,-0.1003,-0.1036,-0.0977,-0.0972,-0.0939,-0.0954,-0.0951,-0.0896,-0.0896,-0.092,-0.0938,0,0,0,-0.1021,-0.1032,-0.1026,-0.1028,-0.1028,-0.1004,-0.0995,-0.0977,-0.0979,-0.0955,-0.0951,-0.0895,-0.0896,-0.0919,-0.0936,-0.0958,0,0,0,-0.1034,-0.1027,-0.1026,-0.1027,-0.1028,-0.1029,-0.0996,-0.0997,-0.0982,-0.0953,-0.0896,-0.0896,-0.0919,-0.0935,-0.0957,-0.0932,-0.0936,0,0,-0.1033,-0.1028,-0.1029,-0.1027,-0.1036,-0.1029,-0.1034,-0.1,-0.097,-0.0907,-0.0907,-0.092,-0.0936,-0.0958,-0.0953,-0.0956,0,0,0,-0.1034,-0.1031,-0.1037,-0.1039,-0.1039,-0.1042,-0.1021,-0.1003,-0.0966,-0.0961,-0.092,-0.093,-0.0943,-0.0925,-0.0928,-0.0977,-0.0898,-0.0898,-0.0898,-0.1051,-0.1045,-0.1047,-0.1041,-0.1044,-0.1046,-0.1044,-0.101,-0.0976,-0.0968,-0.095,-0.0984,-0.0965,-0.0967,-0.1018,-0.0946,-0.0946,-0.0946,-0.0946,-0.1052,-0.1041,-0.1044,-0.1038,-0.1039,-0.1036,-0.1028,-0.1019,-0.1005,-0.0973,-0.0984,-0.0952,-0.0972,-0.1024,-0.0948,-0.0947,-0.0947,-0.0947,-0.0947,-0.1055,-0.104,-0.1037,-0.1021,-0.102,-0.1022,-0.1032,-0.1031,-0.1023,-0.1038,-0.1016,-0.1015,-0.1062,-0.1041,-0.1041,-0.1042,-0.1042,-0.1042,-0.1042,-0.1043,-0.1036,-0.1012,-0.1002,-0.099,-0.1,-0.1032,-0.1055,-0.1065,-0.1048,-0.1047,-0.108,-0.1013,-0.101,-0.1045,-0.1044,-0.1044,-0.1044,-0.1043,-0.1012,-0.1004,-0.0969,-0.0951,-0.0941,-0.0938,-0.1004,-0.1056,-0.1091,-0.1095,-0.1114,-0.1051,-0.1042,-0.1039,-0.1037,-0.1076,-0.1076,-0.1076,-0.1076,-0.0979,-0.0978,-0.0912,-0.0882,-0.0887,-0.0902,-0.0923,-0.0983,-0.1079,-0.1106,-0.1157,-0.1134,-0.113,-0.1126,-0.1121,-0.112,-0.118,-0.118,-0.1181,-0.094,-0.0925,-0.0868,-0.0843,-0.0844,-0.0862,-0.0831,-0.0862,-0.1046,-0.1192,-0.1235,-0.1231,-0.1203,-0.1194,-0.1189,-0.1178,-0.1175,0,0]},{"header":{"parameterUnit":"m.s-1","parameterCategory":2,"la1":30.2992,"la2":30.254,"lo1":-89.0895,"lo2":-89.0443,"dy":0.0025,"dx":0.0025,"nx":19,"ny":19,"refTime":"2026-03-18T21:00:00:Z","depth":"0","parameterNumber":3,"parameterNumberName":"V-component_of_CURRENTS"},"data":[0,0,0,-0.079,-0.079,-0.0784,-0.0784,-0.0723,-0.0722,0,0,0,0,0,0,0,0,0,0,0,-0.079,-0.079,-0.079,-0.079,-0.0784,-0.0784,-0.0723,-0.0722,0,0,0,0,0,0,0,0,0,0,0,-0.0789,-0.079,-0.079,-0.079,-0.0784,-0.0784,-0.0723,-0.0736,0,0,0,0,0,0,0,0,0,0,-0.0746,-0.0751,-0.079,-0.079,-0.079,-0.0784,-0.0784,-0.0737,-0.0735,-0.0717,0,-0.0733,0,-0.0736,-0.0719,-0.0719,0,0,0,-0.0768,-0.0752,-0.0766,-0.0791,-0.0791,-0.0784,-0.0781,-0.0736,-0.0734,-0.0715,-0.0732,-0.073,-0.0735,-0.0719,-0.0719,-0.0758,-0.0758,0,0,-0.0769,-0.0767,-0.0768,-0.0766,-0.0809,-0.0781,-0.0781,-0.0735,-0.0731,-0.0732,-0.0729,-0.0734,-0.0719,-0.0718,-0.0757,-0.0758,0,0,0,-0.0784,-0.0767,-0.0783,-0.0768,-0.0777,-0.0782,-0.0781,-0.0732,-0.0743,-0.0728,-0.0733,-0.0718,-0.0718,-0.0756,-0.0757,-0.0796,0,0,0,-0.0784,-0.0778,-0.0783,-0.0779,-0.0779,-0.076,-0.0779,-0.0746,-0.0741,-0.0734,-0.0718,-0.0717,-0.0755,-0.0757,-0.0793,-0.0787,0,0,0,-0.0786,-0.0778,-0.0787,-0.0779,-0.0789,-0.0761,-0.0767,-0.0745,-0.0745,-0.0719,-0.0717,-0.0754,-0.0756,-0.0791,-0.0784,-0.0775,0,0,0,-0.0769,-0.079,-0.0787,-0.0806,-0.0789,-0.0798,-0.0767,-0.0755,-0.0736,-0.0718,-0.0755,-0.0757,-0.079,-0.0781,-0.0773,-0.0823,-0.0834,0,0,-0.0787,-0.0792,-0.0803,-0.0801,-0.0812,-0.0796,-0.0813,-0.0774,-0.0763,-0.076,-0.0761,-0.0794,-0.0783,-0.0774,-0.0933,-0.094,0,0,0,-0.0803,-0.0811,-0.0814,-0.0819,-0.0823,-0.0826,-0.0803,-0.0812,-0.0822,-0.0767,-0.0822,-0.0814,-0.0806,-0.0835,-0.0842,-0.0893,-0.0766,-0.0766,-0.0765,-0.0815,-0.0818,-0.0826,-0.0831,-0.0836,-0.0846,-0.0859,-0.0873,-0.0853,-0.0884,-0.0868,-0.0915,-0.0951,-0.0955,-0.1009,-0.0905,-0.0905,-0.0905,-0.0905,-0.0832,-0.0823,-0.0833,-0.0842,-0.0851,-0.0865,-0.0904,-0.0915,-0.0943,-0.0936,-0.0927,-0.0903,-0.0964,-0.1019,-0.0908,-0.0908,-0.0908,-0.0907,-0.0907,-0.0818,-0.0809,-0.0827,-0.0833,-0.0856,-0.088,-0.0928,-0.0956,-0.0958,-0.0972,-0.0973,-0.0973,-0.0996,-0.096,-0.096,-0.096,-0.096,-0.096,-0.096,-0.0779,-0.0795,-0.0803,-0.0823,-0.0843,-0.0884,-0.094,-0.0967,-0.0995,-0.1007,-0.1007,-0.1039,-0.0931,-0.09,-0.096,-0.096,-0.096,-0.096,-0.096,-0.0729,-0.0744,-0.0761,-0.0786,-0.0853,-0.0921,-0.0973,-0.1042,-0.105,-0.1065,-0.1123,-0.1025,-0.1003,-0.0999,-0.0971,-0.1044,-0.1044,-0.1044,-0.1044,-0.0684,-0.0696,-0.0728,-0.0783,-0.0855,-0.0942,-0.1062,-0.1154,-0.1199,-0.1238,-0.1186,-0.1214,-0.1208,-0.1199,-0.119,-0.1166,-0.1288,-0.1288,-0.1288,-0.0643,-0.0666,-0.0686,-0.076,-0.0859,-0.0973,-0.1103,-0.1288,-0.138,-0.1301,-0.1249,-0.1238,-0.128,-0.1267,-0.125,-0.1234,-0.1193,0,0]}],[{"header":{"parameterUnit":"m.s-1","parameterCategory":2,"la1":30.2992,"la2":30.254,"lo1":-89.0895,"lo2":-89.0443,"dy":0.0025,"dx":0.0025,"nx":19,"ny":19,"refTime":"2026-03-18T21:00:00:Z","depth":"2","parameterNumber":2,"parameterNumberName":"U-component_of_CURRENTS"},"data":[0,0,0,-0.2235,-0.2234,-0.2211,-0.2211,-0.2072,-0.2071,0,0,0,0,0,0,0,0,0,0,0,-0.2225,-0.2224,-0.2235,-0.2234,-0.2211,-0.2211,-0.2073,-0.2071,0,0,0,0,0,0,0,0,0,0,0,-0.2225,-0.2224,-0.2224,-0.2234,-0.2211,-0.2211,-0.2073,-0.2116,0,0,0,0,0,0,0,0,0,0,-0.2151,-0.2156,-0.2224,-0.2224,-0.2234,-0.2211,-0.2211,-0.2119,-0.2113,-0.2054,0,-0.2043,0,-0.2062,-0.206,-0.2059,0,0,0,-0.2226,-0.2161,-0.2163,-0.2224,-0.2234,-0.2211,-0.2219,-0.2116,-0.2109,-0.2046,-0.2042,-0.2038,-0.2059,-0.2059,-0.2058,-0.1844,-0.1843,0,0,-0.2228,-0.2211,-0.2168,-0.2158,-0.2215,-0.222,-0.2219,-0.2113,-0.2093,-0.2042,-0.2036,-0.2057,-0.2058,-0.2056,-0.1845,-0.1844,0,0,0,-0.2237,-0.2211,-0.2218,-0.2162,-0.2171,-0.222,-0.2218,-0.2097,-0.2102,-0.2035,-0.2055,-0.2057,-0.2055,-0.1846,-0.1844,-0.1859,0,0,0,-0.2237,-0.2218,-0.2218,-0.2206,-0.2174,-0.2149,-0.2204,-0.2109,-0.2098,-0.2056,-0.2057,-0.2053,-0.1847,-0.1845,-0.1861,-0.1828,0,0,0,-0.2228,-0.2217,-0.2213,-0.2206,-0.2203,-0.2152,-0.215,-0.2107,-0.211,-0.2059,-0.2053,-0.1848,-0.1846,-0.1863,-0.1832,-0.1727,0,0,0,-0.2214,-0.2205,-0.2212,-0.2194,-0.2203,-0.2166,-0.2151,-0.2124,-0.2084,-0.2056,-0.1847,-0.1845,-0.1864,-0.1835,-0.1731,-0.1592,-0.1563,0,0,-0.2204,-0.2203,-0.2194,-0.2201,-0.2166,-0.2169,-0.2092,-0.2049,-0.2013,-0.1876,-0.1872,-0.186,-0.1833,-0.1728,-0.1439,-0.1415,0,0,0,-0.2192,-0.2173,-0.2166,-0.2141,-0.2126,-0.2063,-0.2036,-0.1993,-0.1899,-0.1978,-0.1802,-0.1782,-0.1716,-0.1639,-0.1619,-0.1832,-0.1832,-0.1833,-0.1833,-0.2121,-0.2126,-0.2079,-0.2061,-0.2032,-0.198,-0.1917,-0.1834,-0.1843,-0.1794,-0.1753,-0.1621,-0.1539,-0.1522,-0.1725,-0.1725,-0.1725,-0.1725,-0.1725,-0.2041,-0.1978,-0.1986,-0.1946,-0.19,-0.1835,-0.1756,-0.1755,-0.1623,-0.1674,-0.1611,-0.1606,-0.1502,-0.1725,-0.1725,-0.1725,-0.1725,-0.1725,-0.1725,-0.1925,-0.1893,-0.1889,-0.1825,-0.1766,-0.1745,-0.1643,-0.1623,-0.1587,-0.1544,-0.1412,-0.141,-0.1617,-0.1518,-0.1518,-0.1517,-0.1516,-0.1516,-0.1516,-0.178,-0.1779,-0.1733,-0.1699,-0.1674,-0.1632,-0.1569,-0.1493,-0.138,-0.1355,-0.1353,-0.1549,-0.1556,-0.1599,-0.1506,-0.1508,-0.1509,-0.151,-0.1511,-0.1605,-0.1637,-0.1567,-0.1546,-0.1519,-0.1467,-0.1426,-0.1245,-0.1147,-0.1053,-0.1213,-0.1223,-0.1182,-0.1196,-0.1227,-0.1043,-0.1043,-0.1042,-0.1042,-0.1491,-0.1501,-0.1438,-0.1421,-0.139,-0.1394,-0.1233,-0.1126,-0.102,-0.0969,-0.0974,-0.1039,-0.1057,-0.1014,-0.1033,-0.1063,-0.0836,-0.0836,-0.0836,-0.1385,-0.1386,-0.1332,-0.136,-0.1361,-0.1315,-0.1195,-0.1079,-0.0886,-0.084,-0.1064,-0.1004,-0.1113,-0.1137,-0.1086,-0.111,-0.1164,0,0]},{"header":{"parameterUnit":"m.s-1","parameterCategory":2,"la1":30.2992,"la2":30.254,"lo1":-89.0895,"lo2":-89.0443,"dy":0.0025,"dx":0.0025,"nx":19,"ny":19,"refTime":"2026-03-18T21:00:00:Z","depth":"2","parameterNumber":3,"parameterNumberName":"V-component_of_CURRENTS"},"data":[0,0,0,0.0254,0.0255,0.0318,0.0319,0.047,0.0471,0,0,0,0,0,0,0,0,0,0,0,0.0228,0.0228,0.0254,0.0255,0.0318,0.0319,0.0469,0.0471,0,0,0,0,0,0,0,0,0,0,0,0.0228,0.0228,0.0228,0.0255,0.0318,0.0319,0.0469,0.0408,0,0,0,0,0,0,0,0,0,0,0.034,0.0297,0.0228,0.0228,0.0255,0.0318,0.0319,0.0405,0.0412,0.0455,0,0.0448,0,0.0459,0.0481,0.0482,0,0,0,0.0273,0.0291,0.0307,0.0228,0.0255,0.0318,0.0295,0.0408,0.0417,0.0465,0.045,0.0455,0.0461,0.0482,0.0483,0.0594,0.0594,0,0,0.0269,0.0248,0.0301,0.0312,0.0252,0.0293,0.0296,0.0413,0.0415,0.0451,0.0459,0.0464,0.0483,0.0484,0.0594,0.0594,0,0,0,0.0247,0.0246,0.0258,0.0306,0.0309,0.0294,0.0299,0.041,0.0413,0.046,0.0466,0.0484,0.0486,0.0594,0.0594,0.0493,0,0,0,0.0246,0.0232,0.0256,0.0246,0.0306,0.035,0.0293,0.0405,0.0418,0.0465,0.0484,0.0487,0.0594,0.0594,0.0496,0.0482,0,0,0,0.0229,0.023,0.023,0.0244,0.0264,0.0348,0.0359,0.0408,0.0422,0.0482,0.0488,0.0594,0.0594,0.0498,0.0486,0.0518,0,0,0,0.0217,0.0202,0.023,0.0224,0.0263,0.0305,0.0358,0.0399,0.0444,0.0485,0.0594,0.0594,0.0499,0.0488,0.0519,0.0378,0.0361,0,0,0.0191,0.0198,0.0198,0.0224,0.0237,0.0299,0.0329,0.0405,0.0467,0.0564,0.0566,0.0495,0.0486,0.0518,0.0392,0.0374,0,0,0,0.0186,0.0173,0.0188,0.0199,0.0248,0.0291,0.0358,0.0398,0.0464,0.0491,0.0528,0.0528,0.055,0.0468,0.0455,0.0595,0.0595,0.0595,0.0595,0.0117,0.0143,0.0141,0.0173,0.0204,0.0287,0.0336,0.0409,0.0445,0.0456,0.0468,0.0459,0.0367,0.0357,0.048,0.048,0.0479,0.0479,0.0479,0.0066,0.0068,0.0097,0.0091,0.0152,0.0179,0.0302,0.0335,0.0415,0.0426,0.0452,0.0394,0.0336,0.0471,0.0473,0.0474,0.0475,0.0475,0.0475,0.0019,0.0027,0.0011,0.0016,0.0042,0.0115,0.0196,0.0273,0.0344,0.0365,0.0322,0.0322,0.0418,0.0368,0.0368,0.0368,0.0368,0.0368,0.0368,-0.0014,-0.0019,-0.0049,-0.0045,-0.0035,0.0018,0.0134,0.0193,0.0221,0.024,0.024,0.0424,0.0427,0.0416,0.0369,0.0369,0.0369,0.0369,0.0369,-0.0039,-0.0058,-0.009,-0.0098,-0.0055,-0.0015,0.0069,0.0076,0.0137,0.0113,0.0196,0.02,0.024,0.025,0.0236,0.0147,0.0147,0.0147,0.0147,-0.0052,-0.0063,-0.01,-0.0092,-0.0041,-0.0008,-0.0012,0.0094,0.015,0.027,0.0267,0.0244,0.0246,0.029,0.0299,0.0289,0.0214,0.0215,0.0216,-0.0049,-0.0067,-0.0081,-0.009,-0.003,-0.0013,-0.0065,0.0228,0.0539,0.0239,0.0486,0.0111,0.006,0.0071,0.0129,0.0147,0.0128,0,0]}],[{"header":{"parameterUnit":"m.s-1","parameterCategory":2,"la1":30.2992,"la2":30.254,"lo1":-89.0895,"lo2":-89.0443,"dy":0.0025,"dx":0.0025,"nx":19,"ny":19,"refTime":"2026-03-18T21:00:00:Z","depth":"4","parameterNumber":2,"parameterNumberName":"U-component_of_CURRENTS"},"data":[0,0,0,-0.0639,-0.0639,-0.0674,-0.0675,-0.0885,-0.0887,0,0,0,0,0,0,0,0,0,0,0,-0.0643,-0.0643,-0.0639,-0.0639,-0.0674,-0.0675,-0.0885,-0.0887,0,0,0,0,0,0,0,0,0,0,0,-0.0643,-0.0643,-0.0643,-0.0639,-0.0674,-0.0675,-0.0884,-0.0823,0,0,0,0,0,0,0,0,0,0,-0.0771,-0.0737,-0.0643,-0.0643,-0.0639,-0.0674,-0.0675,-0.0818,-0.0827,-0.091,0,-0.0906,0,-0.0889,-0.0903,-0.0904,0,0,0,-0.0664,-0.0729,-0.0737,-0.0643,-0.0639,-0.0674,-0.0665,-0.0822,-0.0832,-0.0922,-0.0909,-0.0915,-0.0893,-0.0905,-0.0906,-0.1064,-0.1064,0,0,-0.0662,-0.066,-0.0729,-0.0742,-0.0642,-0.0664,-0.0666,-0.0826,-0.0839,-0.0909,-0.0919,-0.0896,-0.0906,-0.0908,-0.1064,-0.1064,0,0,0,-0.064,-0.0658,-0.0659,-0.0735,-0.0721,-0.0664,-0.0667,-0.0832,-0.0831,-0.0921,-0.0899,-0.0908,-0.091,-0.1064,-0.1064,-0.1017,0,0,0,-0.064,-0.0643,-0.0658,-0.0658,-0.0716,-0.0752,-0.067,-0.0821,-0.0837,-0.0897,-0.0908,-0.0913,-0.1064,-0.1064,-0.1018,-0.0994,0,0,0,-0.0642,-0.0644,-0.0644,-0.0658,-0.0659,-0.0748,-0.0756,-0.0823,-0.0824,-0.0904,-0.0913,-0.1064,-0.1064,-0.1019,-0.0996,-0.099,0,0,0,-0.0645,-0.0629,-0.0644,-0.0622,-0.0658,-0.0676,-0.0755,-0.0801,-0.0863,-0.0909,-0.1064,-0.1064,-0.102,-0.0998,-0.0992,-0.0851,0,0,0,-0.0619,-0.0626,-0.0609,-0.0623,-0.0625,-0.0673,-0.0707,-0.0827,-0.0894,-0.1028,-0.1031,-0.1018,-0.0996,-0.0991,-0.0849,0,0,0,0,-0.0597,-0.0601,-0.0602,-0.0606,-0.0622,-0.0659,-0.0752,-0.0814,-0.0924,-0.0924,-0.103,-0.1018,-0.1016,-0.0938,-0.1063,-0.1063,-0.1064,-0.1064,-0.1064,-0.0587,-0.0584,-0.0584,-0.0594,-0.0607,-0.0678,-0.0724,-0.0829,-0.0912,-0.0945,-0.0989,-0.0964,-0.088,-0.1002,-0.1002,-0.1002,-0.1002,-0.1001,-0.1001,-0.0552,-0.0552,-0.0574,-0.058,-0.0619,-0.066,-0.0749,-0.0806,-0.0903,-0.0955,-0.0955,-0.0905,-0.0997,-0.0998,-0.0999,-0.0999,-0.0999,-0.1,-0.1,-0.0543,-0.0547,-0.056,-0.0561,-0.0609,-0.0661,-0.0678,-0.0776,-0.0867,-0.0872,-0.0823,-0.0938,-0.0933,-0.0893,-0.0893,-0.0892,-0.0892,-0.0892,-0.0892,-0.0522,-0.0536,-0.0532,-0.0551,-0.0556,-0.0582,-0.0647,-0.065,-0.0748,-0.0754,-0.0877,-0.0928,-0.0931,-0.0928,-0.089,-0.089,-0.0891,-0.0891,-0.0891,-0.0499,-0.0515,-0.0478,-0.0477,-0.0466,-0.0475,-0.0532,-0.052,-0.053,-0.053,-0.0691,-0.0702,-0.0709,-0.0718,-0.0707,-0.0603,-0.0601,-0.0599,0,-0.0491,-0.0493,-0.0433,-0.0385,-0.0352,-0.0408,-0.0356,-0.0365,-0.0462,-0.0499,-0.0561,-0.0749,-0.0755,-0.0768,-0.0773,-0.0761,0,0,0,-0.0472,-0.046,-0.0398,-0.0352,-0.0306,-0.032,-0.0348,-0.0336,-0.0478,-0.0359,-0.0549,-0.0562,-0.0631,-0.0883,-0.092,-0.0924,-0.092,0,0]},{"header":{"parameterUnit":"m.s-1","parameterCategory":2,"la1":30.2992,"la2":30.254,"lo1":-89.0895,"lo2":-89.0443,"dy":0.0025,"dx":0.0025,"nx":19,"ny":19,"refTime":"2026-03-18T21:00:00:Z","depth":"4","parameterNumber":3,"parameterNumberName":"V-component_of_CURRENTS"},"data":[0,0,0,-0.0572,-0.0574,-0.0688,-0.0689,-0.075,-0.075,0,0,0,0,0,0,0,0,0,0,0,-0.0538,-0.0539,-0.0572,-0.0574,-0.0688,-0.0689,-0.075,-0.075,0,0,0,0,0,0,0,0,0,0,0,-0.0538,-0.0539,-0.054,-0.0575,-0.0688,-0.0689,-0.075,-0.0688,0,0,0,0,0,0,0,0,0,0,-0.0589,-0.0569,-0.0539,-0.054,-0.0575,-0.0688,-0.0689,-0.0686,-0.0692,-0.0671,0,-0.069,0,-0.0712,-0.0751,-0.0751,0,0,0,-0.0586,-0.0564,-0.0588,-0.054,-0.0576,-0.0687,-0.064,-0.069,-0.0696,-0.0678,-0.0691,-0.0694,-0.0713,-0.0751,-0.0752,-0.0761,-0.0761,0,0,-0.0579,-0.0564,-0.0584,-0.0593,-0.0606,-0.0636,-0.0643,-0.0695,-0.0703,-0.0692,-0.0696,-0.0714,-0.0752,-0.0752,-0.0761,-0.0761,0,0,0,-0.0554,-0.0559,-0.0585,-0.0589,-0.0612,-0.0639,-0.0647,-0.0701,-0.0708,-0.0697,-0.0715,-0.0752,-0.0752,-0.0761,-0.0761,-0.0811,0,0,0,-0.0551,-0.0544,-0.0582,-0.0575,-0.0611,-0.067,-0.0652,-0.0705,-0.0711,-0.0715,-0.0752,-0.0752,-0.0761,-0.0761,-0.0809,-0.0796,0,0,0,-0.0533,-0.0542,-0.0554,-0.0573,-0.0617,-0.067,-0.0681,-0.0708,-0.0721,-0.0751,-0.0752,-0.0761,-0.0761,-0.0808,-0.0795,-0.0743,0,0,0,-0.0515,-0.0544,-0.0554,-0.0591,-0.0615,-0.0681,-0.0682,-0.074,-0.0771,-0.0752,-0.0761,-0.0761,-0.0808,-0.0794,-0.0743,-0.0592,0,0,0,-0.054,-0.0546,-0.0568,-0.0579,-0.0645,-0.0666,-0.0726,-0.0768,-0.0755,-0.074,-0.0742,-0.081,-0.0795,-0.0743,-0.059,0,0,0,0,-0.0568,-0.0583,-0.0604,-0.0645,-0.0688,-0.0725,-0.0768,-0.0777,-0.0794,-0.0771,-0.0795,-0.0782,-0.0748,-0.0661,-0.0761,-0.0761,-0.0761,-0.0761,-0.0761,-0.0576,-0.0604,-0.0646,-0.0682,-0.0721,-0.0777,-0.0801,-0.081,-0.0813,-0.082,-0.0814,-0.0791,-0.0703,-0.082,-0.082,-0.082,-0.0821,-0.0821,-0.0821,-0.0588,-0.0617,-0.0656,-0.0707,-0.0752,-0.0799,-0.0827,-0.084,-0.0822,-0.0833,-0.0799,-0.0709,-0.0825,-0.0824,-0.0824,-0.0823,-0.0823,-0.0823,-0.0822,-0.058,-0.0605,-0.0634,-0.0702,-0.0766,-0.0815,-0.0817,-0.0846,-0.0832,-0.0823,-0.0673,-0.0786,-0.0788,-0.0796,-0.0795,-0.0795,-0.0795,-0.0795,-0.0795,-0.0566,-0.0599,-0.0641,-0.0704,-0.0753,-0.079,-0.0806,-0.0767,-0.0763,-0.067,-0.0808,-0.078,-0.0781,-0.0784,-0.079,-0.0791,-0.0792,-0.0792,-0.0792,-0.0578,-0.0596,-0.0639,-0.0684,-0.0756,-0.0756,-0.0767,-0.0618,-0.0549,-0.0458,-0.0572,-0.0584,-0.053,-0.0535,-0.0528,-0.0459,-0.0457,-0.0455,0,-0.0588,-0.0599,-0.0654,-0.0702,-0.072,-0.0744,-0.0578,-0.0511,-0.0466,-0.0462,-0.0601,-0.0742,-0.0745,-0.0699,-0.0701,-0.0699,0,0,0,-0.0598,-0.0611,-0.0648,-0.0699,-0.0719,-0.0591,-0.0535,-0.0458,-0.0476,-0.0313,-0.0405,-0.0418,-0.0648,-0.0778,-0.0722,-0.0723,-0.0723,0,0]}]]